#timestamp,LO_Frequency,Hit 
1502769615.9,286047001.6,N
1502769635.7,286047002.8,N
1502769655.5,286046999.8,N
1502769675.4,286047002.9,N
1502769695.2,286047000.6,N
1502769715.0,286046999.2,N
1502769715.9,286046999.2,N
1502769735.8,286047001.1,N
1502769755.6,286047000.8,N
1502769775.4,286046998.1,N
1502769795.2,286047002.8,N
1502769815.1,286047000.7,N
1502769816.0,286047000.7,N
1502769835.8,286047000.0,N
1502769855.6,286047002.0,N
1502769875.5,286047000.7,N
1502769895.3,286046999.1,N
1502769915.1,286046999.4,N
1502769935.9,286046999.9,N
1502769955.7,286046999.9,N
1502769975.5,286047003.7,N
1502769995.4,286047004.1,N
1502770015.2,286047004.2,N
1502770035.0,286047001.5,N
1502770035.9,286047001.5,N
1502770055.8,286047002.3,N
1502770075.6,286047003.1,N
1502770095.4,286047001.7,N
1502770115.2,286047005.8,N
1502770135.1,286047007.3,N
1502770136.0,286047007.3,N
1502770155.8,286047007.2,N
1502770175.6,286047004.5,N
1502770195.5,286047004.1,N
1502770215.3,286047003.5,N
1502770235.1,286047004.2,N
1502770255.9,286047001.6,N
1502770275.7,286047000.1,N
1502770295.5,286047000.2,N
1502770315.4,286047005.3,N
1502770335.2,286047007.0,N
1502770355.0,286047004.6,N
1502770355.9,286047004.6,N
1502770375.7,286047006.5,N
1502770395.6,286047006.0,N
1502770415.4,286047004.0,N
1502770435.2,286047004.3,N
1502770455.1,286047004.6,N
1502770456.0,286047004.6,N
1502770475.8,286047005.9,N
1502770495.6,286047005.3,N
1502770515.5,286047003.0,N
1502770535.3,286047004.3,N
1502770555.1,286047005.3,N
1502770575.9,286047007.2,N
1502770595.7,286047007.0,N
1502770615.5,286047009.5,Y
1502770635.4,286047004.5,N
1502770655.2,286047003.5,N
1502770675.0,286047001.4,N
1502770675.9,286047001.4,N
1502770695.8,286047002.0,N
1502770715.6,286047002.5,N
1502770735.4,286046999.9,N
1502770755.2,286047001.4,N
1502770775.1,286047002.3,N
1502770776.0,286047002.3,N
1502770795.8,286047004.3,N
1502770815.6,286047007.6,N
1502770835.5,286047004.5,N
1502770855.3,286047003.9,N
1502770875.1,286047001.5,N
1502770895.9,286047003.5,N
1502770915.7,286047002.9,N
1502770935.5,286047006.9,N
1502770955.4,286047005.0,N
1502770975.2,286047006.3,N
1502770995.0,286047005.1,N
1502770995.9,286047005.1,N
1502771015.7,286047005.2,N
1502771035.6,286047007.4,N
1502771055.4,286047007.8,N
1502771075.2,286047009.3,Y
1502771095.1,286047007.4,N
1502771096.0,286047007.4,N
1502771115.8,286047007.6,N
1502771135.6,286047005.1,N
1502771155.5,286047001.3,N
1502771175.3,286047002.3,N
1502771195.1,286047000.3,N
1502771215.9,286047001.2,N
1502771235.7,286047000.4,N
1502771255.5,286047000.2,N
1502771275.4,286047002.4,N
1502771295.2,286047004.3,N
1502771315.0,286047001.8,N
1502771315.9,286047001.8,N
1502771335.8,286046999.8,N
1502771355.6,286047002.7,N
1502771375.4,286047001.8,N
1502771395.2,286047000.0,N
1502771415.1,286047000.8,N
1502771416.0,286047000.8,N
1502771435.8,286047000.8,N
1502771455.6,286046998.7,N
1502771475.5,286047000.7,N
1502771495.3,286047002.0,N
1502771515.1,286047002.2,N
1502771535.9,286047005.9,N
1502771555.7,286047001.9,N
1502771575.5,286047001.7,N
1502771595.4,286047002.2,N
1502771615.2,286047002.6,N
1502771635.0,286047001.5,N
1502771635.9,286047001.5,N
1502771655.7,286047005.9,N
1502771675.6,286047005.4,N
1502771695.4,286047005.7,N
1502771715.2,286047002.1,N
1502771735.1,286047001.5,N
1502771736.0,286047001.5,N
1502771755.8,286047004.1,N
1502771775.6,286047005.3,N
1502771795.5,286047003.0,N
1502771815.3,286047003.6,N
1502771835.1,286047002.5,N
1502771855.9,286047000.6,N
1502771875.7,286046998.9,N
1502771895.5,286046998.2,N
1502771915.3,286046999.0,N
1502771935.2,286046998.1,N
1502771955.0,286047000.0,N
1502771955.9,286047000.0,N
1502771975.7,286047000.4,N
1502771995.6,286047001.9,N
1502772015.4,286047001.4,N
1502772035.2,286046999.7,N
1502772055.1,286046999.3,N
1502772056.0,286046999.3,N
1502772075.8,286046998.8,N
1502772095.6,286046998.2,N
1502772115.5,286047000.9,N
1502772135.3,286047001.3,N
1502772155.1,286047005.2,N
1502772175.9,286047001.8,N
1502772195.7,286047001.6,N
1502772215.5,286047002.3,N
1502772235.3,286047004.0,N
1502772255.2,286046999.8,N
1502772275.0,286046999.9,N
1502772275.9,286046999.9,N
1502772295.7,286046999.9,N
1502772315.6,286047000.8,N
1502772335.4,286046996.5,N
1502772355.2,286046996.9,N
1502772375.1,286047001.2,N
1502772376.0,286047001.2,N
1502772395.8,286047000.0,N
1502772415.6,286047001.1,N
1502772435.5,286046999.2,N
1502772455.3,286046996.7,N
1502772475.1,286046996.9,N
1502772495.8,286046996.8,N
1502772515.7,286046997.8,N
1502772535.5,286046995.6,N
1502772555.3,286046997.9,N
1502772575.2,286047002.5,N
1502772595.9,286047005.3,N
1502772615.7,286047008.3,N
1502772635.6,286047011.2,Y
1502772655.4,286047006.4,N
1502772675.2,286047003.4,N
1502772695.1,286047003.7,N
1502772696.0,286047003.7,N
1502772715.8,286047000.1,N
1502772735.6,286046999.4,N
1502772755.5,286046999.2,N
1502772775.3,286046998.4,N
1502772795.1,286046998.3,N
1502772815.8,286046998.5,N
1502772835.7,286046996.8,N
1502772855.5,286046997.0,N
1502772875.3,286046994.9,N
1502772895.2,286046995.1,N
1502772915.9,286046997.7,N
1502772935.7,286046995.5,N
1502772955.6,286046995.9,N
1502772975.4,286046997.9,N
1502772995.2,286046998.4,N
1502773015.1,286047000.8,N
1502773016.0,286047000.8,N
1502773035.8,286047000.6,N
1502773055.6,286047001.1,N
1502773075.4,286046998.7,N
1502773095.3,286046999.3,N
1502773115.1,286047000.6,N
1502773135.8,286046998.2,N
1502773155.7,286046998.4,N
1502773175.5,286047003.8,N
1502773195.3,286047000.4,N
